Regional Weather Roundup
Issued by NWS

Home | Current Version | Previous Version | Graphics & Text | Print | Product List | Glossary On
Versions: 1 2 3 4 5 6 7 8 9 10 11 12 13 14 15 16 17 18 19 20 21 22 23 24 25 26 27 28 29 30 31 32 33 34 35 36 37 38 39 40 41 42 43 44 45 46 47 48 49 50
312
ASUS44 KMEG 210010
RWRTN
TENNESSEE HOURLY STATE WEATHER ROUNDUP
NATIONAL WEATHER SERVICE MEMPHIS TN
700 PM CDT WED SEP 20 2017

TNZ002-004-019-021-049-052-054-088>092-210100-
WEST TENNESSEE

CITY           SKY/WX    TMP DP  RH WIND       PRES   REMARKS
MEMPHIS INTL   PTCLDY    86  72  62 S7        29.95S HX  92
NWS MEMPHIS      N/A     87 N/A N/A MISG        N/A
JACKSON        CLEAR     81  75  82 CALM      29.97S
DYERSBURG      CLEAR     84  74  71 CALM      29.96S HX  91
SOMERVILLE     CLEAR     81  75  83 CALM      29.96R
COVINGTON      CLEAR     84  73  70 CALM      29.95S HX  91
BOLIVAR        CLEAR     81  75  83 CALM      29.96S
PARIS          CLEAR     81  72  74 SE5       29.96S
HUNTINGDON     CLEAR     81  73  78 CALM      29.96S
LEXINGTON      CLEAR     79  73  83 CALM      29.97S
SELMER         CLEAR     79  77  94 CALM      29.98R
SAVANNAH       CLEAR     81  77  89 CALM      29.97S
$$

TNZ008-025-027-028-033-062-065-066-210100-
NORTH MIDDLE TENNESSEE

CITY           SKY/WX    TMP DP  RH WIND       PRES   REMARKS
NASHVILLE      PTCLDY    81  71  71 CALM      29.99F
PORTLAND       CLEAR     77  73  88 CALM      29.99F
CLARKSVILLE    CLEAR     80  72  76 CALM      29.98S
SMYRNA         PTCLDY    87  72  61 CALM      30.00S HX  92
COOKEVILLE     CLEAR     73  70  88 CALM      30.02S
GALLATIN       CLEAR     81  72  74 CALM      30.01S
CROSSVILLE     CLOUDY    71  67  87 CALM      30.08S
$$

TNZ061-075-076-078-094-096-097-210100-
SOUTH MIDDLE TENNESSEE

CITY           SKY/WX    TMP DP  RH WIND       PRES   REMARKS
FAYETTEVILLE   CLEAR     79  70  73 CALM      30.01R
TULLAHOMA      CLEAR     75  70  83 CALM      30.04R
WINCHESTER     CLEAR     77  70  78 CALM        N/A
MCMINNVILLE    CLEAR     75  73  94 CALM      30.03R
COLUMBIA       PTCLDY    79  70  73 CALM      29.98R
SHELBYVILLE    CLEAR     77  73  88 CALM      30.00S
$$

TNZ017-018-042-046-047-210100-
NORTHEAST TENNESSEE

CITY           SKY/WX    TMP DP  RH WIND       PRES   REMARKS
TRI CITIES     PTCLDY    73  64  73 CALM      30.05R
ELIZABETHTON   CLEAR     70  63  78 CALM      30.06R
$$

TNZ012-013-036-069-073-074-210100-
CENTRAL EAST TENNESSEE

CITY           SKY/WX    TMP DP  RH WIND       PRES   REMARKS
KNOXVILLE      MOCLDY    81  65  58 NW5       30.01F
OAK RIDGE      PTCLDY    77  70  79 CALM      30.04S
DOWNTOWN KNOXV   N/A     73  70  88 CALM      30.01F
GATLINBURG     CLEAR     75  63  64 CALM      30.02S
MORRISTOWN     CLEAR     81  64  57 W6        30.03S
JACKSBORO      PTCLDY    70  68  94 SW5       30.07S
$$

TNZ083-085-099-210100-
SOUTHEAST TENNESSEE

CITY           SKY/WX    TMP DP  RH WIND       PRES   REMARKS
CHATTANOOGA    PTCLDY    81  70  69 CALM      30.00S
DAYTON         CLEAR     75  73  94 CALM      30.01S
$$

SKY/WX REPORTED AS FAIR MEANS FEW OR NO CLOUDS BELOW
12 THOUSAND FEET.





USA.gov is the U.S. government's official web portal to all federal, state and local government web resources and services.